Location: *
(44.2833°N, 8.3000°E)
Time: 22:16:30
(UTC+00:00)

Daily predictions for brighter satellites

Satellite Brightness Start Highest point End
(mag) Time Altitude Azimuth Time Altitude Azimuth Time Altitude Azimuth
Unknown 4.0 17:10:05 10° SSW 17:14:04 47° SE 17:18:03 10° ENE
Unknown 3.9 17:10:08 10° SW 17:14:09 51° SE 17:18:11 10° ENE
Cosmos 1486 Rocket 4.1 17:09:55 10° NNW 17:15:13 66° ENE 17:20:31 10° SSE
Unknown 3.9 17:11:43 10° SW 17:15:44 52° SE 17:19:47 10° ENE
Cosmos 371 Rocket 4.0 17:11:44 10° SSW 17:16:28 60° WNW 17:21:15 10° NNE
Cosmos 1821 Rocket 4.2 17:12:44 10° N 17:18:38 48° ENE 17:24:31 10° SSE
Cosmos 2366 rocket 4.5 17:12:22 10° NNW 17:18:39 70° W 17:24:50 10° S
Unknown 4.0 17:14:47 10° SW 17:18:47 50° SE 17:22:48 10° ENE
Cosmos 1726 Rocket 4.4 17:15:19 10° SSE 17:19:07 29° E 17:22:55 10° NNE
Unknown 3.8 17:15:40 10° WSW 17:19:28 62° NNW 17:23:17 10° NE
Unknown 3.9 17:18:05 10° SW 17:22:07 53° SE 17:26:09 10° ENE
Cosmos 1242 Rocket 4.2 17:20:37 10° NNE 17:23:02 16° ENE 17:25:26 10° ESE
Nadezhda 3 Rocket 4.1 17:17:13 10° SSE 17:23:18 56° E 17:29:28 10° NNE
Cosmos 1733 4.4 17:19:42 10° SSW 17:23:25 48° WNW 17:27:10 10° N
Cosmos 2058 Rocket 4.2 17:20:22 10° SE 17:23:41 21° E 17:27:00 10° NE
Unknown 3.8 17:19:47 10° SW 17:23:49 54° SE 17:27:53 10° ENE
Cosmos 304 Rocket 3.7 17:20:20 10° SSW 17:25:07 74° ESE 17:29:56 10° NNE
Unknown 3.8 17:21:22 10° SW 17:25:25 56° SE 17:29:30 10° ENE
Unknown 4.4 17:23:13 10° W 17:26:48 41° NNW 17:30:22 10° NE
Unknown 3.8 17:23:04 10° SW 17:27:08 58° SE 17:31:13 10° ENE
Shenzhou-11 Module 3.6 17:27:59 10° SSW 17:30:05 19° SSE 17:31:52 12° ESE
Unknown 3.7 17:29:39 10° SW 17:33:45 66° SE 17:37:47 10° ENE
SL-4 R/B 2.3 17:30:42 10° NW 17:34:28 45° NNE 17:37:22 14° E
Unknown 3.6 17:31:15 10° SW 17:35:21 68° SE 17:39:21 11° ENE
YAOGAN 6 2.6 17:31:51 10° SSE 17:35:29 63° ENE 17:39:07 10° N
EO 1 Delta rocket 4.3 17:31:58 10° SE 17:36:16 37° ENE 17:40:34 10° N
Unknown 3.6 17:32:14 10° SW 17:36:18 76° SE 17:40:17 11° ENE
Unknown 3.6 17:32:58 10° SW 17:37:05 70° SE 17:41:00 11° ENE
Cosmos 1934 Rocket 4.3 17:31:10 10° N 17:37:10 44° ENE 17:43:10 10° SSE
ATLAS 5 CENTAUR R/B 1.5 17:33:00 10° SSW 17:37:10 74° SE 17:41:51 10° NE
Cosmos 724 4.4 17:31:26 10° SSW 17:37:35 82° ESE 17:43:40 10° NE
Unknown 3.6 17:34:37 10° SW 17:38:44 72° SE 17:42:36 12° ENE
Ariane Rocket 3.7 17:34:30 10° SE 17:38:58 32° ENE 17:43:27 10° N
Cosmos 2228 3.2 17:35:49 10° S 17:40:04 51° E 17:44:19 10° NNE
Cosmos 968 Rocket 3.5 17:35:06 10° NNW 17:40:21 62° ENE 17:45:33 10° SSE
Unknown 3.6 17:36:14 10° SW 17:40:22 74° SE 17:44:10 12° ENE
Unknown 3.6 17:39:35 10° SW 17:43:44 78° SE 17:47:25 13° ENE
Atlas Centaur 2 4.4 17:41:12 10° SW 17:44:01 13° SSW 17:46:35 10° S
CZ-2D R/B 3.8 17:41:11 10° SE 17:44:41 35° ENE 17:48:13 10° N
COSMO-SKYMED 1 2.6 17:40:33 10° NNE 17:44:55 87° WNW 17:49:16 10° SSW
Starlink (trailer) 3.6 17:41:12 10° SW 17:45:20 80° SE 17:48:58 13° ENE
Cosmos 1503 Rocket 3.9 17:40:19 10° NNW 17:45:29 66° ENE 17:50:37 10° SSE
Unknown 3.6 17:42:54 10° SW 17:47:03 83° SE 17:50:36 14° ENE
Cosmos 1953 2.3 17:43:19 10° S 17:47:23 86° E 17:51:29 10° N
NOAA 11 4.5 17:42:27 10° SE 17:47:35 44° ENE 17:52:45 10° N
ASTEX 1 3.3 17:42:55 10° N 17:47:52 73° E 17:52:49 10° S
Cosmos 2263 Rocket 4.0 17:43:03 10° WSW 17:48:02 31° NW 17:53:02 10° N
Unknown 3.6 17:44:32 10° SW 17:48:40 85° SE 17:52:09 14° ENE
CSL-04 Rocket 3.7 17:43:54 10° SSE 17:49:27 79° ENE 17:54:59 10° NNW
Cosmos 1992 Rocket 3.9 17:44:51 10° S 17:50:01 69° ESE 17:55:14 10° NNE
H-2A R/B 3.7 17:50:10 15° ENE 17:51:11 15° ENE 17:54:11 10° NNE
Cosmos 1271 Rocket 2.7 17:47:29 10° N 17:51:25 70° ENE 17:55:24 10° SSE
Cosmos 1758 4.4 17:47:37 10° SSW 17:51:28 47° WNW 17:55:19 10° N
Cosmos 921 Rocket 3.4 17:48:49 10° S 17:53:04 43° ESE 17:57:19 10° NNE
Unknown 3.8 17:50:00 10° WSW 17:54:02 68° NNW 17:57:22 15° NE
Cosmos 839 Rocket 4.5 17:48:21 10° NNW 17:54:14 43° NE 17:59:23 16° ESE
Unknown 3.6 17:51:08 10° SW 17:55:17 87° NNW 17:58:30 16° NE
Unknown 3.6 17:51:20 10° WSW 17:55:29 86° NNW 17:58:42 16° NE
Unknown 3.6 17:52:05 10° WSW 17:56:13 86° NW 17:59:25 17° NE
USA 234 4.3 17:53:49 17° E 17:56:56 23° SE 18:01:55 10° S
Cosmos 1953 Rocket 3.4 17:55:05 10° N 17:59:30 80° E 18:03:51 10° S
Cosmos 1825 Rocket 3.9 17:55:17 10° NNW 17:59:38 69° W 18:03:58 10° S
Unknown 3.6 17:56:09 10° WSW 18:00:18 81° NNW 18:03:19 18° NE
Unknown 3.7 17:56:18 10° WSW 18:00:27 80° NNW 18:03:28 18° NE
Cosmos 1703 3.8 17:56:51 10° N 18:00:32 36° ENE 18:03:17 16° SE
Unknown 3.7 17:57:55 10° WSW 18:02:04 76° NNW 18:05:04 18° NE
Cosmos 1833 Rocket 3.9 17:59:50 10° N 18:04:10 22° NE 18:05:42 20° ENE
Unknown 3.8 18:01:14 10° WSW 18:05:22 72° NNW 18:08:14 19° NE
Cosmos 1939 Rocket 2.9 18:02:14 10° SSE 18:06:04 56° ENE 18:10:00 10° N
Unknown 3.7 18:01:58 10° WSW 18:06:06 74° NNW 18:08:54 20° NE
USA 116 3.3 18:03:14 10° N 18:06:20 73° WNW 18:09:31 10° SSW
Cosmos 2285 Rocket 4.1 18:00:28 10° NNW 18:06:56 81° WSW 18:13:20 10° SSE
Unknown 3.8 18:02:51 10° WSW 18:06:59 73° NNW 18:09:46 20° NE
COSMOS 2406 3.6 18:04:17 10° NNW 18:09:50 45° ENE 18:13:13 22° ESE
Unknown 3.8 18:06:03 10° WSW 18:10:11 71° NNW 18:12:48 22° NE
Cosmos 2084 3.5 18:07:12 10° SSW 18:11:43 79° SE 18:15:24 15° NE
ARGOS 4.4 18:11:37 21° ENE 18:12:04 22° ENE 18:16:05 10° NNE
Cosmos 1606 Rocket 4.2 18:09:16 10° SSW 18:13:37 58° W 18:17:57 10° N
Unknown 3.9 18:09:31 10° WSW 18:13:38 66° NNW 18:16:08 23° NE
Meteor 1-11 4.4 18:08:17 10° N 18:13:55 53° ENE 18:19:32 10° SSE
HJ-1C 3.6 18:14:37 40° ESE 18:15:14 46° ENE 18:18:30 10° N
Unknown 3.9 18:11:08 10° WSW 18:15:15 65° NNW 18:17:40 23° NE
Unknown 4.3 18:13:45 10° NW 18:15:41 21° NNE 18:15:41 21° NNE
Unknown 4.0 18:12:53 10° WSW 18:17:00 63° NNW 18:19:22 24° NE
Cosmos 2082 Rocket 3.6 18:13:02 10° N 18:17:15 20° NE 18:18:01 20° ENE
Unknown 4.0 18:14:33 10° WSW 18:18:39 61° NNW 18:20:58 24° NE
CZ-4 R/B 3.1 18:17:19 10° SSW 18:21:07 36° W 18:25:00 10° NNW
Lacrosse 5 rocket 1.1 18:17:37 10° NW 18:21:24 73° NE 18:22:35 43° ESE
Unknown 4.1 18:17:52 10° WSW 18:21:58 58° NNW 18:24:07 26° NE
Cosmos 489 Rocket 4.5 18:15:59 10° S 18:22:02 57° ESE 18:28:06 10° NNE
Unknown 4.1 18:19:35 10° WSW 18:23:40 56° NNW 18:25:46 26° NE
Cosmos 1726 2.0 18:21:10 10° S 18:24:50 89° E 18:28:31 10° N
Unknown 4.1 18:21:13 10° WSW 18:25:17 56° NNW 18:27:19 27° NE
BREEZE-M DEB (TANK) 3.3 18:14:50 10° SW 18:26:07 54° SSE 18:27:34 37° E
CZ-4C R/B 3.5 18:19:33 10° NW 18:26:45 59° WSW 18:34:49 10° SSE
Unknown 4.1 18:22:50 10° WSW 18:26:54 55° NNW 18:28:51 28° NE
Unknown 4.2 18:23:35 10° WSW 18:27:39 54° NNW 18:29:35 28° NE
Unknown 4.1 18:26:02 10° WSW 18:30:06 55° NNW 18:31:53 30° NE
Unknown 4.2 18:29:25 10° WSW 18:33:28 53° NNW 18:35:06 32° NNE
BREEZE-M DEB (TANK) 2.7 18:30:05 10° SW 18:33:56 51° S 18:33:56 51° S
Unknown 4.2 18:31:05 10° WSW 18:35:08 52° NNW 18:36:42 32° NNE
Unknown 4.4 18:33:00 10° W 18:37:01 48° NNW 18:38:34 31° NNE
Cosmos 1328 4.0 18:33:05 10° NNW 18:37:05 70° W 18:40:54 11° S
Lacrosse 5 3.3 18:34:03 10° NW 18:38:10 24° NNE 18:39:16 22° NE
Unknown 4.3 18:34:24 10° WSW 18:38:25 49° NNW 18:39:52 33° NNE
YAOGAN 1 4.4 18:35:27 10° SSW 18:39:19 32° W 18:43:13 10° NNW
Unknown 4.4 18:36:08 10° WSW 18:40:09 48° NNW 18:41:30 34° NNE
Unknown 4.4 18:39:24 10° W 18:43:24 46° NNW 18:44:37 35° NNE
Unknown 4.5 18:41:10 10° W 18:45:09 45° NNW 18:46:18 36° NNE
Cosmos 1908 3.3 18:41:55 10° SSW 18:45:49 78° W 18:49:44 10° N
Unknown 4.5 18:42:49 10° W 18:46:48 45° NNW 18:47:53 36° NNE
Cosmos 1844 Rocket 3.8 18:41:51 10° SW 18:47:15 44° WNW 18:52:39 10° NNE
Cosmos 1356 4.3 18:45:28 10° SSW 18:48:46 48° WNW 18:52:08 10° N
Cosmos 1339 Rocket 4.4 18:45:49 10° S 18:51:54 84° W 18:58:03 10° N
Cosmos 2278 Rocket 2.1 18:52:17 10° S 18:57:51 61° ESE 18:58:05 60° E
Cosmos 1242 Rocket 4.2 18:54:40 10° NNW 18:58:02 33° W 19:00:43 14° SSW
BREEZE-M DEB (TANK) 4.2 18:58:25 10° WNW 19:03:29 86° SSW 19:09:18 35° SE
Cosmos 1605 Rocket 4.3 18:57:50 10° NNW 19:04:00 65° W 19:10:02 10° S
Cosmos 1727 Rocket 3.8 19:01:16 10° S 19:07:27 89° ESE 19:13:41 10° N
Cosmos 292 Rocket 4.2 19:02:49 10° SSW 19:07:30 58° WNW 19:12:12 10° NNE
Resurs 01 Rocket 3.9 19:11:59 14° N 19:11:59 14° N 19:12:48 10° N
Cosmos 1459 Rocket 4.1 19:03:10 10° N 19:08:37 52° ENE 19:08:37 52° ENE
SPOT 3 Rocket 3.4 19:10:30 78° NE 19:10:30 78° NE 19:15:33 10° NNW
Cosmos 1802 Rocket 4.5 19:05:58 10° N 19:11:08 45° NE 19:11:08 45° NE
SL-4 R/B 3.5 19:10:35 10° WNW 19:12:59 29° WSW 19:12:59 29° WSW
Gbstr 26 Del rocket 4.4 19:14:35 10° WNW 19:21:00 58° NNE 19:21:56 54° NE
ADEOS Rocket 3.4 19:13:34 10° NNE 19:21:24 76° ESE 19:28:47 10° S
BREEZE M DEB (TANK) 3.3 19:18:20 10° WNW 19:20:55 56° WSW 19:20:55 56° WSW
ATLAS 5 CENTAUR R/B 4.0 19:19:06 10° W 19:22:26 20° NNW 19:25:26 12° N
Cosmos 2173 Rocket 4.0 19:21:12 10° N 19:26:51 68° NNE 19:26:51 68° NNE
H-2A R/B 2.4 19:30:48 61° NNW 19:30:48 61° NNW 19:35:14 10° NNW
CZ-2C R/B 4.0 19:35:54 46° N 19:35:54 46° N 19:39:59 10° N
USA 234 3.2 19:41:13 73° SSW 19:41:13 73° SSW 19:47:07 10° SW
Cosmos 2100 Rocket 4.0 19:35:32 10° N 19:41:15 74° NW 19:41:15 74° NW
Cosmos 1833 Rocket 3.3 19:43:01 10° NNW 19:47:25 53° NW 19:47:25 53° NW
ARGOS 4.0 19:53:08 47° NW 19:53:08 47° NW 19:57:15 10° NNW
Lacrosse 5 rocket 4.4 19:57:51 10° W 19:58:15 11° W 19:58:15 11° W
Cosmos 2082 Rocket 3.3 19:56:16 10° NNW 19:59:52 40° NW 19:59:52 40° NW
Lacrosse 5 4.2 20:16:51 10° NW 20:18:27 20° NW 20:18:27 20° NW
Cosmos 2278 Rocket 4.4 20:37:48 10° WSW 20:40:07 19° W 20:40:07 19° W
